Regional Weather Roundup
Issued by NWS

Home | Current Version | Previous Version | Text Only | Print | Product List | Glossary Off
Versions: 1 2 3 4 5 6 7 8 9 10 11 12 13 14 15 16 17 18 19 20 21 22 23 24 25 26 27 28 29 30 31 32 33 34 35 36 37 38 39 40 41 42 43 44 45 46 47 48 49 50

000
ASUS43 KBIS 161202
RWRND

NORTH DAKOTA REGIONAL WEATHER ROUNDUP
NATIONAL WEATHER SERVICE BISMARCK ND
600 AM CST MON JAN 16 2017

NOTE: "FAIR" INDICATES FEW OR NO CLOUDS BELOW 12,000 FEET WITH NO
SIGNIFICANT WEATHER AND/OR OBSTRUCTIONS TO VISIBILITY.


NDZ001>003-009>011-017-161300-
NORTHWEST NORTH DAKOTA

CITY           SKY/WX    TMP DP  RH WIND       PRES   REMARKS
WILLISTON      FAIR       7   3  84 SW5       30.07S WCI  -2
6HR MIN TEMP:   3; 6HR MAX TEMP:  13;

MINOT          FAIR      15   7  70 W9        30.01R WCI   3
$$

NDZ018>021-031>035-040>046-161300-
SOUTHWEST NORTH DAKOTA

CITY           SKY/WX    TMP DP  RH WIND       PRES   REMARKS
BISMARCK       FAIR      -3  -8  79 S3        30.07S
6HR MIN TEMP:  -9; 6HR MAX TEMP:   1;

DICKINSON      FAIR      14   6  70 W15       30.01R WCI  -1
GARRISON         N/A     13   5  70 W13       30.03R WCI  -2
6HR MIN TEMP:   8; 6HR MAX TEMP:  17;

HETTINGER ARPT CLOUDY    12   4  70 NW17      30.06R WCI  -5
$$

NDZ004>008-012>016-024-026-027-054-161300-
NORTHEAST NORTH DAKOTA

CITY           SKY/WX    TMP DP  RH WIND       PRES   REMARKS
GRAND FORKS    CLOUDY     6   0  76 S9        30.03S WCI  -8
GRND FRKS AFB  CLEAR     10   2  71 SW9       30.03R WCI  -3
DEVILS LAKE    FAIR       8   4  83 W13       30.00R WCI  -8
$$

NDZ022-023-025-028>030-036>039-047>053-161300-
SOUTHEAST NORTH DAKOTA

CITY           SKY/WX    TMP DP  RH WIND       PRES   REMARKS
FARGO          CLOUDY    10   7  87 S9        30.07S WCI  -3
6HR MIN TEMP:   6; 6HR MAX TEMP:  13;

JAMESTOWN      FAIR      11   4  73 W12       30.02F WCI  -3
$$





USA.gov is the U.S. government's official web portal to all federal, state and local government web resources and services.